Location: Recife
(8.0585°S, 34.8848°W)
Time: 13:01:03
(UTC-03:00)

Transit 4A - Pass Details

Date: 19 April 2026
Orbit: 861 x 980 km, 66.8° (Epoch: 12 May)

Event Time Altitude Azimuth Distance (km) Brightness Sun altitude
Rises 23:29:28 0° 346° (NNW) 3,650 - -85.6°
Reaches altitude 10° 23:32:04 10° 349° (N) 2,698 - -85.2°
Maximum altitude 23:38:19 67° 71° (ENE) 1,029 - -84.0°
Drops below altitude 10° 23:44:27 10° 152° (SSE) 2,644 - -82.8°
Sets 23:46:57 0° 155° (SSE) 3,573 - -82.2°
